Find Starlink 31334

NORAD ID: 59157 Int'l Des: 2024-044 Owner: SPXS Country: US Constellation: starlink operational
LEOCIRCULAR

Live Position

Loading 3D Globe...

About Starlink 31334

Description loading...

Upcoming Passes

Passes for default location (London). Set your location on the main map for personalized predictions.

Altitude History

Loading altitude history...

Two-Line Element Set

1 59157U 24044F 26121.51774550 -.00004840 00000-0 -16633-3 0 9997
2 59157 43.0022 172.2398 0000834 253.0865 106.9895 15.27609293121608
Epoch: May 1, 2026 • Age: 6 hours

Current Status

Altitude 493.2 km
Velocity 7.62 km/s
Sub-Earth Point -36.63°S, 17.9°W
Launch Date Mar 4, 2024
Age 2.1 years
Type internet

Technical Details

Classification Payload
Mass 730.00 kg
Dry Mass 700.00 kg
Total Mass 730.00 kg
Length 0.30 m
Diameter 4.10 m
Span 29.00 m
Shape Box + pan
Manufacturer SPXS
Bus Type Starlink V2M
Phase Status In Orbit
Owner/State SPXS/US

Most Searched